Beatrice, NE

2:37 PM CDT on October 18, 2017 (GMT -0500)
Beatrice Municipal

Weather History for KBIE - November, 2014

Change the Weather History Date:

Sunday, November 2, 2014

  Actual Average Record
Temperature  
Mean Temperature 53 °F -  
Max Temperature 63 °F 57 °F 78 °F (1952)
Min Temperature 43 °F 38 °F 13 °F (1951)
Degree Days  
Heating Degree Days 12    
Growing Degree Days 3 (Base 50)    
Moisture  
Dew Point 34 °F    
Average Humidity 51    
Maximum Humidity 70    
Minimum Humidity 42    
Precipitation  
Precipitation 0.00 in - - ()
Sea Level Pressure  
Sea Level Pressure 29.96 in    
Wind  
Wind Speed 15 mph (South)    
Max Wind Speed 25 mph    
Max Gust Speed 34 mph    
Visibility 10 miles    
Events      
Averages and records for this station are not official NWS values.
T = Trace of Precipitation, MM = Missing Value Source: NWS Daily Summary

Daily Weather History Graph

Daily Weather History Graph

Search for Another Location

Airport or City:

Trip Planner

Search our weather history database for the weather conditions in past years. The results will help you decide how hot, cold, wet, or windy it might be!

Date:

Astronomy

Nov. 02, 2014 Rise Set
Actual Time 6:57 AM CST 5:22 PM CST
Civil Twilight 6:29 AM CST 5:51 PM CST
Nautical Twilight 5:57 AM CST 6:23 PM CST
Astronomical Twilight 5:25 AM CST 6:54 PM CST
Moon 2:56 PM CST (11/2) 2:01 AM CST (11/2)
Length of Visible Light 11h 21m
Length of Day
10h 25m
Waxing Gibbous, 79% of the Moon is Illuminated
Nov 2
Waxing Gibbous
Nov 6
Full
Nov 14
Last Quarter
Nov 22
New
Nov 29
First Quarter

Hourly Weather History & Observations

Time (CST) Temp. Windchill Dew Point Humidity Pressure Visibility Wind Dir Wind Speed Gust Speed Precip Events Conditions
12:15 AM 43.7 °F 37.7 °F 23.2 °F 44% 30.10 in 10.0 mi SE 11.5 mph - N/A   Clear
12:35 AM 43.2 °F 37.4 °F 23.5 °F 46% 30.10 in 10.0 mi SSE 10.4 mph - N/A   Clear
12:55 AM 43.2 °F 37.4 °F 23.5 °F 46% 30.10 in 10.0 mi SSE 10.4 mph - N/A   Clear
1:15 AM 43.5 °F 37.5 °F 23.5 °F 45% 30.09 in 10.0 mi SSE 11.5 mph - N/A   Clear
1:35 AM 43.9 °F 37.9 °F 23.4 °F 44% 30.09 in 10.0 mi SSE 11.5 mph - N/A   Clear
1:55 AM 43.9 °F 37.2 °F 23.5 °F 45% 30.08 in 10.0 mi SSE 13.8 mph 18.4 mph N/A   Clear
1:15 AM 43.9 °F 37.9 °F 23.4 °F 44% 30.07 in 10.0 mi SSE 11.5 mph 18.4 mph N/A   Clear
1:35 AM 43.9 °F 37.5 °F 23.4 °F 44% 30.06 in 10.0 mi SSE 12.7 mph 18.4 mph N/A   Clear
1:55 AM 44.6 °F 37.4 °F 23.0 °F 43% 30.05 in 10.0 mi SSE 16.1 mph 25.3 mph N/A   Clear
2:15 AM 45.0 °F 37.6 °F 23.0 °F 42% 30.04 in 10.0 mi South 17.3 mph 20.7 mph N/A   Clear
2:35 AM 45.0 °F 37.9 °F 23.4 °F 43% 30.04 in 10.0 mi SSE 16.1 mph 21.9 mph N/A   Clear
2:55 AM 45.0 °F 38.2 °F 23.5 °F 43% 30.03 in 10.0 mi SSE 15.0 mph 23.0 mph N/A   Clear
3:15 AM 45.5 °F 39.2 °F 23.9 °F 43% 30.02 in 10.0 mi South 13.8 mph 21.9 mph N/A   Clear
3:35 AM 45.5 °F 38.6 °F 23.9 °F 43% 30.01 in 10.0 mi SSE 16.1 mph 25.3 mph N/A   Clear
3:55 AM 44.6 °F 38.1 °F 24.3 °F 45% 30.01 in 10.0 mi SSE 13.8 mph 19.6 mph N/A   Clear
4:15 AM 44.6 °F 37.4 °F 24.4 °F 45% 30.01 in 10.0 mi South 16.1 mph 21.9 mph N/A   Clear
4:35 AM 44.6 °F 37.4 °F 24.6 °F 45% 30.00 in 10.0 mi SSE 16.1 mph 19.6 mph N/A   Clear
4:55 AM 44.6 °F 39.2 °F 24.8 °F 46% 30.01 in 10.0 mi SSE 10.4 mph - N/A   Clear
5:15 AM 44.6 °F 39.7 °F 25.3 °F 47% 30.00 in 10.0 mi SSE 9.2 mph - N/A   Clear
5:35 AM 44.6 °F 39.2 °F 25.7 °F 48% 30.00 in 10.0 mi South 10.4 mph 16.1 mph N/A   Clear
5:55 AM 44.4 °F 37.9 °F 26.4 °F 49% 30.00 in 10.0 mi South 13.8 mph - N/A   Clear
6:15 AM 43.9 °F 38.3 °F 27.0 °F 51% 30.00 in 10.0 mi SSE 10.4 mph 17.3 mph N/A   Clear
6:35 AM 44.6 °F 38.8 °F 27.3 °F 51% 30.00 in 10.0 mi SSE 11.5 mph - N/A   Clear
6:55 AM 44.6 °F 37.8 °F 27.5 °F 51% 30.00 in 10.0 mi South 15.0 mph - N/A   Clear
7:15 AM 44.6 °F 37.2 °F 28.2 °F 53% 29.99 in 10.0 mi South 17.3 mph 20.7 mph N/A   Clear
7:35 AM 45.5 °F 38.1 °F 28.9 °F 52% 29.99 in 10.0 mi South 18.4 mph 27.6 mph N/A   Clear
7:55 AM 45.9 °F 38.3 °F 29.3 °F 52% 29.99 in 10.0 mi South 19.6 mph 27.6 mph N/A   Clear
8:15 AM 46.8 °F - 30.0 °F 52% 29.99 in 10.0 mi South 19.6 mph 26.5 mph N/A   Clear
8:35 AM 48.0 °F - 30.6 °F 51% 29.99 in 10.0 mi South 21.9 mph 28.8 mph N/A   Clear
8:55 AM 49.5 °F - 31.6 °F 50% 29.99 in 10.0 mi South 21.9 mph 32.2 mph N/A   Clear
9:15 AM 50.7 °F - 32.0 °F 49% 30.00 in 10.0 mi South 23.0 mph 31.1 mph N/A   Clear
9:35 AM 51.4 °F - 32.2 °F 48% 29.99 in 10.0 mi South 25.3 mph 32.2 mph N/A   Clear
9:55 AM 52.7 °F - 32.7 °F 47% 29.98 in 10.0 mi South 24.2 mph 33.4 mph N/A   Clear
10:15 AM 53.6 °F - 33.8 °F 47% 29.98 in 10.0 mi South 21.9 mph 33.4 mph N/A   Clear
10:35 AM 54.7 °F - 34.2 °F 46% 29.97 in 10.0 mi South 23.0 mph 34.5 mph N/A   Clear
10:55 AM 55.6 °F - 34.7 °F 45% 29.97 in 10.0 mi South 24.2 mph 32.2 mph N/A   Clear
11:15 AM 56.8 °F - 35.8 °F 45% 29.96 in 10.0 mi South 21.9 mph 31.1 mph N/A   Clear
11:35 AM 57.4 °F - 36.0 °F 45% 29.95 in 10.0 mi South 25.3 mph 33.4 mph N/A   Clear
11:55 AM 58.6 °F - 36.9 °F 44% 29.93 in 10.0 mi South 23.0 mph 31.1 mph N/A   Clear
12:15 PM 60.1 °F - 37.4 °F 43% 29.92 in 10.0 mi South 23.0 mph 29.9 mph N/A   Clear
12:35 PM 61.2 °F - 38.5 °F 43% 29.91 in 10.0 mi South 21.9 mph 29.9 mph N/A   Clear
12:55 PM 61.9 °F - 39.0 °F 43% 29.90 in 10.0 mi South 24.2 mph 34.5 mph N/A   Clear
1:15 PM 62.6 °F - 39.4 °F 42% 29.89 in 10.0 mi South 25.3 mph 28.8 mph N/A   Clear
1:35 PM 63.0 °F - 39.9 °F 43% 29.89 in 10.0 mi South 21.9 mph 28.8 mph N/A   Clear
1:55 PM 63.1 °F - 40.3 °F 43% 29.88 in 10.0 mi SSW 25.3 mph 32.2 mph N/A   Clear
2:15 PM 63.7 °F - 40.6 °F 43% 29.87 in 10.0 mi South 23.0 mph 29.9 mph N/A   Clear
2:35 PM 63.9 °F - 41.4 °F 44% 29.87 in 10.0 mi South 21.9 mph 32.2 mph N/A   Clear
2:55 PM 63.5 °F - 41.4 °F 44% 29.86 in 10.0 mi South 24.2 mph 28.8 mph N/A   Clear
3:15 PM 62.6 °F - 41.5 °F 46% 29.86 in 10.0 mi South 18.4 mph 28.8 mph N/A   Clear
3:35 PM 61.7 °F - 41.5 °F 48% 29.87 in 10.0 mi South 23.0 mph 31.1 mph N/A   Clear
3:55 PM 62.4 °F - 42.1 °F 47% 29.87 in 10.0 mi South 17.3 mph 27.6 mph N/A   Clear
4:15 PM 61.2 °F - 42.3 °F 50% 29.87 in 10.0 mi South 16.1 mph 29.9 mph N/A   Clear
4:35 PM 60.8 °F - 42.3 °F 50% 29.87 in 10.0 mi South 23.0 mph 31.1 mph N/A   Clear
4:55 PM 59.0 °F - 41.9 °F 53% 29.86 in 10.0 mi South 21.9 mph 33.4 mph N/A   Clear
5:15 PM 58.3 °F - 41.9 °F 54% 29.88 in 10.0 mi South 17.3 mph 23.0 mph N/A   Clear
5:35 PM 57.7 °F - 41.9 °F 56% 29.88 in 10.0 mi South 13.8 mph 20.7 mph N/A   Clear
5:55 PM 57.2 °F - 42.3 °F 57% 29.88 in 10.0 mi South 13.8 mph - N/A   Clear
6:15 PM 57.0 °F - 42.4 °F 58% 29.88 in 10.0 mi South 17.3 mph 20.7 mph N/A   Clear
6:35 PM 56.7 °F - 42.4 °F 59% 29.89 in 10.0 mi South 15.0 mph 23.0 mph N/A   Clear
6:55 PM 56.1 °F - 42.3 °F 60% 29.89 in 10.0 mi South 15.0 mph 19.6 mph N/A   Clear
7:15 PM 55.8 °F - 42.3 °F 60% 29.89 in 10.0 mi South 16.1 mph - N/A   Clear
7:35 PM 55.6 °F - 42.6 °F 62% 29.89 in 10.0 mi South 15.0 mph - N/A   Clear
7:55 PM 54.9 °F - 42.8 °F 64% 29.89 in 10.0 mi South 13.8 mph - N/A   Clear
8:15 PM 54.5 °F - 43.7 °F 67% 29.88 in 10.0 mi South 12.7 mph 18.4 mph N/A   Clear
8:35 PM 54.9 °F - 44.6 °F 68% 29.89 in 10.0 mi South 11.5 mph 18.4 mph N/A   Clear
8:55 PM 54.9 °F - 44.6 °F 68% 29.89 in 10.0 mi South 13.8 mph - N/A   Clear
9:15 PM 54.3 °F - 43.9 °F 68% 29.88 in 10.0 mi South 13.8 mph 19.6 mph N/A   Clear
9:35 PM 54.1 °F - 43.9 °F 68% 29.90 in 10.0 mi South 12.7 mph - N/A   Clear
9:55 PM 54.3 °F - 44.2 °F 69% 29.90 in 10.0 mi South 15.0 mph 20.7 mph N/A   Clear
10:15 PM 54.7 °F - 44.2 °F 68% 29.90 in 10.0 mi South 12.7 mph - N/A   Clear
10:35 PM 54.5 °F - 44.4 °F 69% 29.90 in 10.0 mi South 12.7 mph 18.4 mph N/A   Clear
10:55 PM 54.1 °F - 44.6 °F 70% 29.91 in 10.0 mi South 11.5 mph - N/A   Clear